GLO1354 SBGR-SBPL

Flight info

Callsign GLO1354
Flight time 2h 13m
Altitude 37000
Route NUXEL UZ23 UTLEV UZ88 REBAM
Aircraft B738/M-SDE2E3FGHIRWXY/LB1

Departure

Time 2026-04-30 10:47
Airport São Paulo/Guarulhos–Governor André Franco Montoro International Airport (SBGR)

Arrival

Time 2026-04-30 13:01
Airport Senador Nilo Coelho Airport (SBPL)
Time Latitude Longitude Altitude Speed Heading
2026-04-30 10:22 -23.42836 -46.47949 2464 ft 0 kts 265°
2026-04-30 10:37 -23.42835 -46.47945 2464 ft 3 kts 264°
2026-04-30 10:37 -23.42831 -46.47916 2464 ft 4 kts 252°
2026-04-30 10:37 -23.42820 -46.47889 2466 ft 4 kts 236°
2026-04-30 10:37 -23.42803 -46.47868 2464 ft 4 kts 212°
2026-04-30 10:38 -23.42780 -46.47859 2464 ft 3 kts 172°
2026-04-30 10:38 -23.42777 -46.47859 2464 ft 0 kts 169°
2026-04-30 10:43 -23.42789 -46.47857 2464 ft 7 kts 170°
2026-04-30 10:43 -23.42864 -46.47843 2465 ft 12 kts 169°
2026-04-30 10:43 -23.42948 -46.47826 2467 ft 13 kts 169°
2026-04-30 10:44 -23.43042 -46.47804 2464 ft 14 kts 166°
2026-04-30 10:44 -23.43121 -46.47847 2464 ft 17 kts 249°
2026-04-30 10:44 -23.43163 -46.47997 2465 ft 22 kts 253°
2026-04-30 10:44 -23.43206 -46.48156 2470 ft 22 kts 253°
2026-04-30 10:45 -23.43247 -46.48296 2469 ft 15 kts 245°
2026-04-30 10:45 -23.43320 -46.48349 2469 ft 0 kts 185°
2026-04-30 10:45 -23.43339 -46.48349 2464 ft 5 kts 174°
2026-04-30 10:45 -23.43404 -46.48325 2463 ft 14 kts 142°
2026-04-30 10:46 -23.43409 -46.48263 2460 ft 0 kts 75°
2026-04-30 10:46 -23.43348 -46.48037 2463 ft 68 kts 73°
2026-04-30 10:46 -23.43148 -46.47292 2459 ft 134 kts 74°
2026-04-30 10:47 -23.42837 -46.46127 2531 ft 181 kts 74°
2026-04-30 10:47 -23.42467 -46.44744 3063 ft 192 kts 74°
2026-04-30 10:47 -23.42106 -46.43415 4197 ft 178 kts 74°
2026-04-30 10:47 -23.41721 -46.42062 4791 ft 202 kts 73°
2026-04-30 10:48 -23.41277 -46.40517 5028 ft 232 kts 73°
2026-04-30 10:48 -23.40758 -46.38725 5290 ft 264 kts 73°
2026-04-30 10:48 -23.40185 -46.36765 5928 ft 278 kts 73°
2026-04-30 10:48 -23.39581 -46.34722 6668 ft 288 kts 73°
2026-04-30 10:49 -23.38964 -46.32625 7454 ft 294 kts 72°
2026-04-30 10:49 -23.38352 -46.30479 8302 ft 298 kts 72°
2026-04-30 10:49 -23.37484 -46.28422 9052 ft 303 kts 51°
2026-04-30 10:49 -23.35972 -46.26833 9870 ft 303 kts 39°
2026-04-30 10:50 -23.34394 -46.25274 10554 ft 313 kts 44°
2026-04-30 10:50 -23.32886 -46.23427 10751 ft 340 kts 50°
2026-04-30 10:50 -23.31423 -46.21301 11008 ft 361 kts 54°
2026-04-30 10:50 -23.30009 -46.19029 11540 ft 371 kts 56°
2026-04-30 10:51 -23.28604 -46.16657 12240 ft 375 kts 57°
2026-04-30 10:51 -23.27208 -46.14250 12969 ft 379 kts 57°
2026-04-30 10:51 -23.25796 -46.11805 13659 ft 382 kts 57°
2026-04-30 10:51 -23.24369 -46.09338 14289 ft 388 kts 57°
2026-04-30 10:52 -23.22921 -46.06850 14922 ft 391 kts 57°
2026-04-30 10:52 -23.21250 -46.04512 15517 ft 394 kts 40°
2026-04-30 10:52 -23.18927 -46.02974 16111 ft 392 kts 18°
2026-04-30 10:52 -23.16343 -46.02048 16813 ft 391 kts 14°
2026-04-30 10:53 -23.13742 -46.01112 17359 ft 397 kts 16°
2026-04-30 10:53 -23.11087 -46.00276 17911 ft 398 kts
2026-04-30 10:53 -23.08349 -45.99855 18494 ft 398 kts
2026-04-30 10:53 -23.05584 -45.99600 19098 ft 398 kts
2026-04-30 10:54 -23.02821 -45.99363 19702 ft 399 kts
2026-04-30 10:54 -23.00046 -45.99091 20266 ft 401 kts
2026-04-30 10:54 -22.97300 -45.98785 20826 ft 402 kts
2026-04-30 10:54 -22.94514 -45.98450 21367 ft 404 kts
2026-04-30 10:55 -22.91712 -45.98107 21822 ft 407 kts
2026-04-30 10:55 -22.88896 -45.97760 22313 ft 408 kts
2026-04-30 10:55 -22.86082 -45.97269 22761 ft 412 kts
2026-04-30 10:55 -22.83279 -45.96566 23204 ft 415 kts
2026-04-30 10:56 -22.81380 -45.96041 23492 ft 417 kts
2026-04-30 10:56 -22.78562 -45.95245 23918 ft 419 kts
2026-04-30 10:56 -22.75771 -45.94467 24327 ft 420 kts
2026-04-30 10:56 -22.72928 -45.93697 24650 ft 423 kts
2026-04-30 10:57 -22.70054 -45.92938 24976 ft 427 kts
2026-04-30 10:57 -22.67163 -45.92185 25327 ft 429 kts
2026-04-30 10:57 -22.64249 -45.91432 25688 ft 431 kts
2026-04-30 10:57 -22.61331 -45.90681 26043 ft 432 kts
2026-04-30 10:58 -22.58395 -45.89927 26363 ft 435 kts
2026-04-30 10:58 -22.55440 -45.89169 26701 ft 437 kts
2026-04-30 10:58 -22.52463 -45.88405 27020 ft 439 kts
2026-04-30 10:58 -22.49479 -45.87637 27320 ft 441 kts
2026-04-30 10:59 -22.46479 -45.86867 27575 ft 445 kts
2026-04-30 10:59 -22.43460 -45.86091 27860 ft 446 kts
2026-04-30 10:59 -22.40434 -45.85314 28153 ft 448 kts
2026-04-30 10:59 -22.37428 -45.84542 28439 ft 450 kts
2026-04-30 11:00 -22.34378 -45.83758 28732 ft 452 kts
2026-04-30 11:00 -22.31314 -45.82973 29006 ft 453 kts
2026-04-30 11:00 -22.28273 -45.81994 29229 ft 462 kts 19°
2026-04-30 11:00 -22.25525 -45.80113 29435 ft 475 kts 35°
2026-04-30 11:01 -22.23005 -45.77805 29754 ft 475 kts 36°
2026-04-30 11:01 -22.20466 -45.75504 29979 ft 477 kts 35°
2026-04-30 11:01 -22.17893 -45.73221 30179 ft 479 kts 34°
2026-04-30 11:01 -22.15296 -45.70953 30398 ft 481 kts 34°
2026-04-30 11:02 -22.12677 -45.68686 30617 ft 482 kts 34°
2026-04-30 11:02 -22.10046 -45.66421 30843 ft 484 kts 34°
2026-04-30 11:02 -22.07442 -45.64182 31043 ft 486 kts 34°
2026-04-30 11:02 -22.04794 -45.61906 31277 ft 486 kts 34°
2026-04-30 11:03 -22.02146 -45.59628 31605 ft 485 kts 34°
2026-04-30 11:03 -21.99511 -45.57360 31947 ft 484 kts 34°
2026-04-30 11:03 -21.96878 -45.55094 32251 ft 483 kts 34°
2026-04-30 11:04 -21.91629 -45.50579 32824 ft 482 kts 34°
2026-04-30 11:04 -21.89040 -45.48353 33073 ft 483 kts 34°
2026-04-30 11:04 -21.86413 -45.46097 33341 ft 483 kts 34°
2026-04-30 11:04 -21.83792 -45.43846 33631 ft 482 kts 34°
2026-04-30 11:05 -21.81164 -45.41591 33948 ft 481 kts 34°
2026-04-30 11:05 -21.78548 -45.39347 34213 ft 481 kts 34°
2026-04-30 11:05 -21.75923 -45.37097 34411 ft 482 kts 34°
2026-04-30 11:05 -21.73302 -45.34852 34641 ft 482 kts 34°
2026-04-30 11:06 -21.70675 -45.32604 34931 ft 481 kts 34°
2026-04-30 11:06 -21.68057 -45.30361 35207 ft 480 kts 34°
2026-04-30 11:06 -21.65446 -45.28127 35460 ft 480 kts 34°
2026-04-30 11:06 -21.62831 -45.25891 35677 ft 480 kts 35°
2026-04-30 11:07 -21.60254 -45.23688 35871 ft 480 kts 34°
2026-04-30 11:07 -21.57635 -45.21449 36120 ft 480 kts 34°
2026-04-30 11:07 -21.55021 -45.19216 36349 ft 479 kts 34°
2026-04-30 11:07 -21.52400 -45.16980 36539 ft 480 kts 34°
2026-04-30 11:08 -21.49806 -45.14767 36776 ft 479 kts 34°
2026-04-30 11:08 -21.47204 -45.12547 37099 ft 476 kts 35°
2026-04-30 11:08 -21.44597 -45.10324 37133 ft 479 kts 34°
2026-04-30 11:09 -21.39391 -45.05888 37142 ft 474 kts 34°
2026-04-30 11:09 -21.34267 -45.01525 37141 ft 467 kts 34°
2026-04-30 11:10 -21.29182 -44.97204 37143 ft 466 kts 34°
2026-04-30 11:10 -21.24112 -44.92896 37147 ft 464 kts 35°
2026-04-30 11:11 -21.19087 -44.88631 37162 ft 464 kts 35°
2026-04-30 11:11 -21.14025 -44.84322 37159 ft 465 kts 35°
2026-04-30 11:12 -21.08955 -44.79999 37160 ft 466 kts 35°
2026-04-30 11:12 -21.03854 -44.75677 37161 ft 467 kts 33°
2026-04-30 11:13 -20.98571 -44.71624 37165 ft 467 kts 31°
2026-04-30 11:13 -20.93231 -44.67634 37153 ft 469 kts 32°
2026-04-30 11:14 -20.87910 -44.63599 37160 ft 470 kts 32°
2026-04-30 11:14 -20.82625 -44.59560 37167 ft 470 kts 32°
2026-04-30 11:15 -20.77302 -44.55503 37169 ft 470 kts 32°
2026-04-30 11:15 -20.71982 -44.51451 37162 ft 469 kts 32°
2026-04-30 11:16 -20.66680 -44.47414 37168 ft 468 kts 32°
2026-04-30 11:16 -20.61381 -44.43381 37163 ft 467 kts 32°
2026-04-30 11:17 -20.56098 -44.39365 37175 ft 465 kts 32°
2026-04-30 11:17 -20.50829 -44.35362 37187 ft 464 kts 32°
2026-04-30 11:18 -20.45610 -44.31399 37180 ft 463 kts 32°
2026-04-30 11:18 -20.37809 -44.25313 37197 ft 463 kts 34°
2026-04-30 11:19 -20.32656 -44.21189 37203 ft 463 kts 34°
2026-04-30 11:19 -20.27485 -44.17075 37204 ft 463 kts 34°
2026-04-30 11:20 -20.22307 -44.12972 37203 ft 464 kts 34°
2026-04-30 11:20 -20.17118 -44.08863 37205 ft 465 kts 34°
2026-04-30 11:21 -20.12066 -44.04897 37209 ft 464 kts 31°
2026-04-30 11:21 -20.06274 -44.02047 37212 ft 457 kts 12°
2026-04-30 11:22 -20.00057 -44.00867 37211 ft 454 kts
2026-04-30 11:22 -19.93853 -43.99807 37215 ft 454 kts
2026-04-30 11:23 -19.87652 -43.98703 37215 ft 455 kts
2026-04-30 11:24 -19.78295 -43.97009 37212 ft 455 kts
2026-04-30 11:24 -19.72048 -43.95878 37213 ft 455 kts
2026-04-30 11:25 -19.62684 -43.94187 37226 ft 455 kts
2026-04-30 11:26 -19.50212 -43.91939 37231 ft 454 kts
2026-04-30 11:26 -19.44020 -43.90824 37230 ft 454 kts
2026-04-30 11:27 -19.37792 -43.89704 37230 ft 454 kts
2026-04-30 11:27 -19.31567 -43.88584 37230 ft 454 kts
2026-04-30 11:28 -19.22231 -43.86907 37231 ft 454 kts
2026-04-30 11:29 -19.15983 -43.85785 37233 ft 455 kts
2026-04-30 11:29 -19.06626 -43.84108 37224 ft 455 kts
2026-04-30 11:30 -18.97254 -43.82430 37218 ft 455 kts
2026-04-30 11:31 -18.91001 -43.81311 37213 ft 456 kts
2026-04-30 11:31 -18.84750 -43.80193 37211 ft 456 kts
2026-04-30 11:32 -18.78526 -43.79082 37204 ft 456 kts
2026-04-30 11:32 -18.72276 -43.77967 37206 ft 455 kts
2026-04-30 11:33 -18.62904 -43.76294 37200 ft 455 kts
2026-04-30 11:33 -18.56652 -43.75182 37194 ft 455 kts
2026-04-30 11:34 -18.50459 -43.74079 37194 ft 456 kts
2026-04-30 11:34 -18.44201 -43.72965 37192 ft 455 kts
2026-04-30 11:35 -18.37987 -43.71861 37197 ft 455 kts
2026-04-30 11:35 -18.31733 -43.70749 37193 ft 455 kts
2026-04-30 11:36 -18.25478 -43.69639 37180 ft 455 kts
2026-04-30 11:36 -18.19228 -43.68529 37185 ft 455 kts
2026-04-30 11:37 -18.12978 -43.67422 37180 ft 455 kts
2026-04-30 11:37 -18.06786 -43.66018 37188 ft 456 kts 14°
2026-04-30 11:38 -18.00695 -43.64099 37185 ft 457 kts 15°
2026-04-30 11:38 -17.94624 -43.62137 37183 ft 457 kts 15°
2026-04-30 11:39 -17.88572 -43.60239 37189 ft 457 kts 15°
2026-04-30 11:39 -17.82477 -43.58363 37177 ft 457 kts 15°
2026-04-30 11:40 -17.76369 -43.56496 37194 ft 457 kts 15°
2026-04-30 11:40 -17.70266 -43.54629 37179 ft 457 kts 15°
2026-04-30 11:41 -17.64152 -43.52759 37174 ft 457 kts 15°
2026-04-30 11:41 -17.58051 -43.50894 37178 ft 457 kts 15°
2026-04-30 11:42 -17.51988 -43.49041 37186 ft 457 kts 15°
2026-04-30 11:42 -17.45878 -43.47175 37187 ft 457 kts 15°
2026-04-30 11:43 -17.39763 -43.45310 37177 ft 457 kts 15°
2026-04-30 11:43 -17.33650 -43.43446 37189 ft 458 kts 15°
2026-04-30 11:44 -17.27525 -43.41579 37184 ft 458 kts 15°
2026-04-30 11:44 -17.22442 -43.40032 37186 ft 458 kts 15°
2026-04-30 11:45 -17.16327 -43.38172 37180 ft 458 kts 15°
2026-04-30 11:45 -17.10210 -43.36312 37187 ft 458 kts 15°
2026-04-30 11:46 -17.04092 -43.34453 37189 ft 458 kts 15°
2026-04-30 11:46 -16.97972 -43.32594 37177 ft 458 kts 16°
2026-04-30 11:47 -16.91859 -43.30739 37175 ft 458 kts 16°
2026-04-30 11:47 -16.85743 -43.28883 37188 ft 458 kts 16°
2026-04-30 11:48 -16.79618 -43.27027 37179 ft 458 kts 16°
2026-04-30 11:48 -16.73544 -43.25189 37189 ft 457 kts 16°
2026-04-30 11:49 -16.67418 -43.23335 37182 ft 457 kts 16°
2026-04-30 11:49 -16.61305 -43.21486 37190 ft 458 kts 16°
2026-04-30 11:50 -16.55192 -43.19638 37183 ft 458 kts 16°
2026-04-30 11:50 -16.49066 -43.17786 37173 ft 458 kts 16°
2026-04-30 11:51 -16.42943 -43.15938 37176 ft 458 kts 16°
2026-04-30 11:51 -16.36827 -43.14093 37174 ft 457 kts 16°
2026-04-30 11:52 -16.30714 -43.12250 37176 ft 457 kts 16°
2026-04-30 11:52 -16.24986 -43.10524 37178 ft 457 kts 16°
2026-04-30 11:53 -16.18827 -43.08669 37175 ft 457 kts 16°
2026-04-30 11:53 -16.12778 -43.06642 37176 ft 456 kts 19°
2026-04-30 11:54 -16.06793 -43.04431 37181 ft 456 kts 20°
2026-04-30 11:54 -16.00801 -43.02231 37170 ft 457 kts 20°
2026-04-30 11:55 -15.94802 -43.00063 37176 ft 456 kts 20°
2026-04-30 11:55 -15.88801 -42.97914 37179 ft 456 kts 20°
2026-04-30 11:56 -15.82785 -42.95763 37167 ft 457 kts 20°
2026-04-30 11:56 -15.76776 -42.93615 37165 ft 457 kts 20°
2026-04-30 11:57 -15.70755 -42.91463 37164 ft 457 kts 20°
2026-04-30 11:57 -15.64740 -42.89312 37169 ft 457 kts 20°
2026-04-30 11:58 -15.58764 -42.87178 37171 ft 457 kts 20°
2026-04-30 11:58 -15.52732 -42.85026 37156 ft 458 kts 20°
2026-04-30 11:59 -15.46704 -42.82877 37148 ft 458 kts 20°
2026-04-30 11:59 -15.40675 -42.80728 37148 ft 458 kts 20°
2026-04-30 12:00 -15.34656 -42.78585 37143 ft 457 kts 20°
2026-04-30 12:00 -15.28641 -42.76444 37150 ft 457 kts 20°
2026-04-30 12:01 -15.22632 -42.74306 37143 ft 456 kts 20°
2026-04-30 12:01 -15.16662 -42.72183 37141 ft 456 kts 20°
2026-04-30 12:02 -15.10656 -42.70049 37138 ft 456 kts 20°
2026-04-30 12:02 -15.04651 -42.67916 37137 ft 456 kts 20°
2026-04-30 12:03 -14.95648 -42.64724 37137 ft 455 kts 20°
2026-04-30 12:04 -14.89653 -42.62598 37131 ft 456 kts 20°
2026-04-30 12:04 -14.83648 -42.60469 37130 ft 456 kts 20°
2026-04-30 12:05 -14.77657 -42.58346 37126 ft 456 kts 20°
2026-04-30 12:05 -14.71657 -42.56223 37123 ft 456 kts 20°
2026-04-30 12:06 -14.65647 -42.54097 37119 ft 456 kts 20°
2026-04-30 12:06 -14.59626 -42.51966 37120 ft 457 kts 20°
2026-04-30 12:07 -14.53614 -42.49842 37122 ft 457 kts 20°
2026-04-30 12:07 -14.47645 -42.47736 37113 ft 457 kts 21°
2026-04-30 12:08 -14.41627 -42.45614 37122 ft 456 kts 21°
2026-04-30 12:08 -14.35613 -42.43502 37121 ft 457 kts 21°
2026-04-30 12:09 -14.29594 -42.41388 37118 ft 456 kts 21°
2026-04-30 12:09 -14.23582 -42.39277 37114 ft 456 kts 21°
2026-04-30 12:10 -14.17569 -42.37166 37109 ft 456 kts 21°
2026-04-30 12:10 -14.11562 -42.35059 37113 ft 456 kts 21°
2026-04-30 12:11 -14.05548 -42.32951 37110 ft 456 kts 21°
2026-04-30 12:11 -13.99530 -42.30843 37113 ft 457 kts 21°
2026-04-30 12:12 -13.93506 -42.28733 37102 ft 457 kts 21°
2026-04-30 12:12 -13.87516 -42.26636 37106 ft 457 kts 21°
2026-04-30 12:13 -13.81485 -42.24526 37100 ft 457 kts 21°
2026-04-30 12:13 -13.75449 -42.22416 37098 ft 457 kts 21°
2026-04-30 12:14 -13.69432 -42.20312 37099 ft 457 kts 21°
2026-04-30 12:14 -13.63417 -42.18211 37099 ft 456 kts 21°
2026-04-30 12:15 -13.57414 -42.16084 37095 ft 456 kts 21°
2026-04-30 12:15 -13.51428 -42.13936 37090 ft 456 kts 21°
2026-04-30 12:16 -13.45433 -42.11786 37088 ft 456 kts 21°
2026-04-30 12:16 -13.39429 -42.09638 37096 ft 457 kts 21°
2026-04-30 12:17 -13.30431 -42.06421 37095 ft 456 kts 21°
2026-04-30 12:17 -13.24435 -42.04282 37083 ft 456 kts 21°
2026-04-30 12:18 -13.18481 -42.02159 37094 ft 455 kts 21°
2026-04-30 12:18 -13.12503 -42.00027 37093 ft 454 kts 21°
2026-04-30 12:19 -13.06530 -41.97898 37083 ft 454 kts 21°
2026-04-30 12:19 -13.00566 -41.95773 37081 ft 453 kts 21°
2026-04-30 12:20 -12.94604 -41.93650 37080 ft 453 kts 21°
2026-04-30 12:20 -12.88646 -41.91529 37096 ft 453 kts 21°
2026-04-30 12:21 -12.82683 -41.89406 37094 ft 454 kts 21°
2026-04-30 12:21 -12.76705 -41.87283 37081 ft 454 kts 21°
2026-04-30 12:22 -12.70736 -41.85163 37083 ft 454 kts 21°
2026-04-30 12:22 -12.64797 -41.83054 37084 ft 455 kts 21°
2026-04-30 12:23 -12.58811 -41.80928 37076 ft 455 kts 21°
2026-04-30 12:23 -12.52826 -41.78805 37074 ft 455 kts 21°
2026-04-30 12:24 -12.46846 -41.76683 37074 ft 455 kts 21°
2026-04-30 12:24 -12.40867 -41.74565 37070 ft 455 kts 21°
2026-04-30 12:25 -12.34898 -41.72448 37065 ft 454 kts 21°
2026-04-30 12:25 -12.28932 -41.70336 37062 ft 454 kts 21°
2026-04-30 12:26 -12.22958 -41.68222 37064 ft 454 kts 21°
2026-04-30 12:26 -12.16994 -41.66112 37065 ft 453 kts 21°
2026-04-30 12:27 -12.11028 -41.64003 37065 ft 453 kts 21°
2026-04-30 12:27 -12.05110 -41.61911 37066 ft 453 kts 21°
2026-04-30 12:28 -11.99143 -41.59802 37065 ft 453 kts 21°
2026-04-30 12:28 -11.93184 -41.57698 37064 ft 453 kts 21°
2026-04-30 12:29 -11.87213 -41.55591 37063 ft 453 kts 21°
2026-04-30 12:29 -11.81249 -41.53486 37055 ft 453 kts 21°
2026-04-30 12:30 -11.75292 -41.51385 37056 ft 453 kts 21°
2026-04-30 12:30 -11.69364 -41.49305 37055 ft 454 kts 20°
2026-04-30 12:31 -11.63327 -41.47403 37056 ft 454 kts 19°
2026-04-30 12:31 -11.57267 -41.45567 37055 ft 454 kts 19°
2026-04-30 12:32 -11.51209 -41.43703 37055 ft 454 kts 19°
2026-04-30 12:32 -11.46176 -41.42139 37055 ft 454 kts 19°
2026-04-30 12:33 -11.40125 -41.40255 37059 ft 455 kts 19°
2026-04-30 12:33 -11.33076 -41.38063 37056 ft 456 kts 19°
2026-04-30 12:34 -11.27992 -41.36483 37054 ft 456 kts 19°
2026-04-30 12:34 -11.24970 -41.35542 36606 ft 463 kts 19°
2026-04-30 12:34 -11.21904 -41.34585 36110 ft 459 kts 19°
2026-04-30 12:35 -11.18869 -41.33574 35450 ft 459 kts 20°
2026-04-30 12:35 -11.15808 -41.32513 34774 ft 459 kts 21°
2026-04-30 12:35 -11.12829 -41.31470 34100 ft 459 kts 21°
2026-04-30 12:35 -11.09819 -41.30423 33624 ft 455 kts 21°
2026-04-30 12:36 -11.06830 -41.29393 33117 ft 451 kts 20°
2026-04-30 12:36 -11.03862 -41.28378 32630 ft 447 kts 20°
2026-04-30 12:36 -11.00920 -41.27372 32139 ft 444 kts 21°
2026-04-30 12:36 -10.98003 -41.26375 31656 ft 440 kts 21°
2026-04-30 12:37 -10.95111 -41.25387 31175 ft 437 kts 21°
2026-04-30 12:37 -10.92236 -41.24406 30699 ft 434 kts 21°
2026-04-30 12:37 -10.89419 -41.23443 30231 ft 430 kts 21°
2026-04-30 12:37 -10.86556 -41.22466 29753 ft 427 kts 21°
2026-04-30 12:38 -10.83754 -41.21508 29275 ft 423 kts 21°
2026-04-30 12:38 -10.81011 -41.20571 28796 ft 420 kts 21°
2026-04-30 12:38 -10.78218 -41.19617 28311 ft 416 kts 21°
2026-04-30 12:38 -10.75521 -41.18697 27836 ft 412 kts 21°
2026-04-30 12:39 -10.72805 -41.17769 27358 ft 409 kts 21°
2026-04-30 12:39 -10.70117 -41.16852 26886 ft 406 kts 21°
2026-04-30 12:39 -10.67447 -41.15940 26398 ft 403 kts 21°
2026-04-30 12:39 -10.64797 -41.15035 25938 ft 399 kts 21°
2026-04-30 12:40 -10.62176 -41.14141 25483 ft 396 kts 21°
2026-04-30 12:40 -10.59569 -41.13252 24999 ft 393 kts 21°
2026-04-30 12:40 -10.56982 -41.12369 24546 ft 390 kts 22°
2026-04-30 12:40 -10.54453 -41.11508 24096 ft 386 kts 22°
2026-04-30 12:41 -10.51914 -41.10642 23641 ft 383 kts 22°
2026-04-30 12:41 -10.49398 -41.09784 23190 ft 380 kts 22°
2026-04-30 12:41 -10.46907 -41.08934 22740 ft 376 kts 22°
2026-04-30 12:41 -10.44432 -41.08090 22295 ft 373 kts 22°
2026-04-30 12:42 -10.41980 -41.07255 21847 ft 370 kts 22°
2026-04-30 12:42 -10.39547 -41.06423 21423 ft 367 kts 22°
2026-04-30 12:42 -10.37137 -41.05598 20992 ft 364 kts 22°
2026-04-30 12:42 -10.34740 -41.04778 20556 ft 362 kts 22°
2026-04-30 12:43 -10.32366 -41.03965 20119 ft 359 kts 22°
2026-04-30 12:43 -10.30006 -41.03157 19698 ft 356 kts 22°
2026-04-30 12:43 -10.27663 -41.02354 19270 ft 354 kts 22°
2026-04-30 12:43 -10.25338 -41.01559 18842 ft 351 kts 22°
2026-04-30 12:44 -10.23036 -41.00771 18426 ft 348 kts 22°
2026-04-30 12:44 -10.20747 -40.99988 18002 ft 346 kts 22°
2026-04-30 12:44 -10.18473 -40.99210 17595 ft 343 kts 22°
2026-04-30 12:44 -10.16216 -40.98437 17172 ft 342 kts 22°
2026-04-30 12:45 -10.13974 -40.97669 16755 ft 339 kts 21°
2026-04-30 12:45 -10.11739 -40.96905 16341 ft 337 kts 21°
2026-04-30 12:45 -10.09525 -40.96149 15947 ft 335 kts 21°
2026-04-30 12:45 -10.07327 -40.95398 15535 ft 333 kts 21°
2026-04-30 12:46 -10.05134 -40.94649 15125 ft 332 kts 21°
2026-04-30 12:46 -10.02978 -40.93915 14730 ft 331 kts 21°
2026-04-30 12:46 -10.00776 -40.93170 14331 ft 329 kts 21°
2026-04-30 12:46 -9.98634 -40.92446 13919 ft 328 kts 21°
2026-04-30 12:47 -9.96465 -40.91712 13517 ft 326 kts 21°
2026-04-30 12:47 -9.94318 -40.90985 13118 ft 325 kts 21°
2026-04-30 12:47 -9.92179 -40.90260 12719 ft 323 kts 21°
2026-04-30 12:47 -9.90050 -40.89541 12322 ft 322 kts 20°
2026-04-30 12:48 -9.87925 -40.88824 11889 ft 322 kts 20°
2026-04-30 12:48 -9.85806 -40.88108 11490 ft 320 kts 21°
2026-04-30 12:48 -9.83692 -40.87394 11095 ft 319 kts 21°
2026-04-30 12:48 -9.81593 -40.86684 10698 ft 317 kts 21°
2026-04-30 12:49 -9.79510 -40.85981 10442 ft 312 kts 21°
2026-04-30 12:49 -9.77489 -40.85298 10293 ft 302 kts 21°
2026-04-30 12:49 -9.75521 -40.84632 10153 ft 293 kts 21°
2026-04-30 12:49 -9.73636 -40.83996 10023 ft 285 kts 21°
2026-04-30 12:50 -9.71772 -40.83367 9768 ft 282 kts 22°
2026-04-30 12:50 -9.69918 -40.82740 9482 ft 280 kts 22°
2026-04-30 12:50 -9.68077 -40.82118 9194 ft 278 kts 22°
2026-04-30 12:50 -9.66249 -40.81501 8898 ft 276 kts 22°
2026-04-30 12:51 -9.64435 -40.80888 8607 ft 274 kts 22°
2026-04-30 12:51 -9.62629 -40.80276 8310 ft 273 kts 22°
2026-04-30 12:51 -9.60832 -40.79668 8013 ft 271 kts 22°
2026-04-30 12:51 -9.59047 -40.79064 7725 ft 269 kts 22°
2026-04-30 12:52 -9.57276 -40.78464 7428 ft 268 kts 22°
2026-04-30 12:52 -9.55514 -40.77870 7151 ft 266 kts 22°
2026-04-30 12:52 -9.53781 -40.77286 7030 ft 259 kts 22°
2026-04-30 12:52 -9.52096 -40.76718 6899 ft 252 kts 22°
2026-04-30 12:53 -9.50455 -40.76163 6786 ft 245 kts 23°
2026-04-30 12:53 -9.48852 -40.75642 6671 ft 240 kts 19°
2026-04-30 12:53 -9.47192 -40.75617 6557 ft 239 kts 352°
2026-04-30 12:53 -9.45616 -40.76001 6521 ft 227 kts 351°
2026-04-30 12:54 -9.44101 -40.76325 6318 ft 221 kts 353°
2026-04-30 12:54 -9.42616 -40.76623 6120 ft 219 kts 353°
2026-04-30 12:54 -9.41111 -40.76919 5881 ft 217 kts 353°
2026-04-30 12:54 -9.39650 -40.77070 5629 ft 208 kts 12°
2026-04-30 12:55 -9.38339 -40.76637 5433 ft 197 kts 27°
2026-04-30 12:55 -9.37002 -40.76085 4739 ft 216 kts 26°
2026-04-30 12:55 -9.35603 -40.75591 4557 ft 209 kts 22°
2026-04-30 12:55 -9.34255 -40.75137 4461 ft 198 kts 23°
2026-04-30 12:56 -9.32982 -40.74705 4406 ft 188 kts 24°
2026-04-30 12:56 -9.31791 -40.74229 4357 ft 180 kts 36°
2026-04-30 12:56 -9.31024 -40.73321 4343 ft 168 kts 77°
2026-04-30 12:56 -9.31091 -40.72172 4204 ft 164 kts 108°
2026-04-30 12:57 -9.31453 -40.71090 3952 ft 159 kts 110°
2026-04-30 12:57 -9.31783 -40.70064 3766 ft 148 kts 109°
2026-04-30 12:57 -9.32087 -40.69108 3613 ft 136 kts 111°
2026-04-30 12:57 -9.32386 -40.68208 3386 ft 133 kts 111°
2026-04-30 12:58 -9.32688 -40.67325 3223 ft 136 kts 111°
2026-04-30 12:58 -9.32991 -40.66440 3055 ft 134 kts 111°
2026-04-30 12:58 -9.33298 -40.65542 2868 ft 134 kts 111°
2026-04-30 12:58 -9.33601 -40.64650 2678 ft 135 kts 111°
2026-04-30 12:59 -9.33911 -40.63741 2517 ft 139 kts 110°
2026-04-30 12:59 -9.34227 -40.62818 2319 ft 137 kts 110°
2026-04-30 12:59 -9.34535 -40.61916 2162 ft 134 kts 110°
2026-04-30 12:59 -9.34834 -40.61014 1950 ft 139 kts 110°
2026-04-30 13:00 -9.35156 -40.60082 1728 ft 138 kts 111°
2026-04-30 13:00 -9.35475 -40.59165 1523 ft 137 kts 110°
2026-04-30 13:00 -9.35782 -40.58270 1344 ft 134 kts 110°
2026-04-30 13:00 -9.36079 -40.57406 1268 ft 121 kts 109°
2026-04-30 13:01 -9.36283 -40.56811 1271 ft 46 kts 109°
2026-04-30 13:01 -9.36371 -40.56578 1269 ft 23 kts 130°
2026-04-30 13:01 -9.36453 -40.56570 1269 ft 3 kts 199°
2026-04-30 13:01 -9.36471 -40.56577 1269 ft 3 kts 199°
2026-04-30 13:02 -9.36472 -40.56577 1269 ft 0 kts 199°
2026-04-30 13:02 -9.36474 -40.56578 1269 ft 0 kts 199°
2026-04-30 13:02 -9.36478 -40.56579 1269 ft 1 kts 199°
2026-04-30 13:02 -9.36504 -40.56587 1268 ft 8 kts 189°
2026-04-30 13:03 -9.36528 -40.56582 1268 ft 1 kts 158°
2026-04-30 13:03 -9.36548 -40.56548 1268 ft 1 kts 124°
2026-04-30 13:03 -9.36565 -40.56544 1268 ft 5 kts 201°
2026-04-30 13:03 -9.36583 -40.56553 1268 ft 2 kts 203°
2026-04-30 13:04 -9.36589 -40.56555 1268 ft 0 kts 202°